Weather in Leskolovo

Russia / Saint-Petersburg and Leningrad Oblast     60°16′18″N   30°27′49″E
temp.,
°C
wind,
m/s
gust,
m/s
humid.,
%
clouds,
%
prec.,
mm/h
press.,
hPa
HPBL,
m
15 august, mon
mon1500:00+14e11615 0.0 102111
03:00+14ene11725 0.0 102110
06:00+14ene11747 0.0 102114
09:00+21e23585 0.0 1021302
12:00+25ese33505 0.0 1021935
15:00+28ese244355 0.0 10201807
18:00+25ene345528 0.0 1019421
21:00+19ene22795 0.0 101933
16 august, tue
tue1600:00+18se118018 0.0 102012
03:00+18s227842 0.0 102030
06:00+18sse23785 0.0 102071
09:00+23se24585 0.0 1020309
12:00+28sse23425 0.0 10191168
15:00+30sse343539 0.0 10182652
18:00+29sse244183 0.0 10181435
21:00+23se235850 0.0 101961
17 august, wed
wed1700:00+20ese116910 0.0 101912
03:00+18sse22755 0.0 101820
06:00+18sse23795 0.0 101859
09:00+23s366099 0.0 1018355
12:00+27s355099 0.0 1018957
15:00+28ssw4546100 0.0 10171516
18:00+27ssw354964 0.0 10171540
21:00+22s2673100 0.1 1017119
18 august, thu
thu1800:00+19s2288100 1.1 101833
03:00+18s2388100 1.1 101861
06:00+17ssw2485100 0.0 101984
09:00+22ssw1367100 0.0 1019203
12:00+26sse2449100 0.0 1019615
15:00+28sse134579 0.0 1019746
18:00+28e234734 0.0 1019365
21:00+21ese22655 0.0 101942
19 august, fri
fri1900:00+20se116733 0.0 102011
03:00+19sse117249 0.0 102011
06:00+18se228127 0.0 102146
09:00+24sse356296 0.0 1021323
12:00+28sse35446 0.0 10211189
15:00+30sse343385 0.0 10202339
18:00+28ese36403 0.0 1020709
21:00+21ese22600 0.0 101918